Overview Statistics Trail Chart Weather Telemetry Raw packets
 

This is the latest recevied weather packets stored in our database for station/object DL4MGC-10. If no packets are shown the sender has not sent any weather packets the latest 10 day(s).

<< 31 32 33 34 35 36 37 >>
Time Temp. Humidity Pressure Rain* Wind** Luminosity Snow
1787964081 16.11° C 99% 1017.5 hPa - - - -
1787963181 16.11° C 98% 1017.6 hPa - - - -
1787962281 16.67° C 98% 1017.7 hPa - - - -
1787961381 16.11° C 100% 1017.7 hPa - - - -
1787960481 16.11° C 100% 1017.7 hPa - - - -
1787959581 16.11° C 100% 1017.7 hPa - - - -
1787958681 16.67° C 99% 1017.7 hPa - - - -
1787957781 16.67° C 100% 1017.7 hPa - - - -
1787956881 16.67° C 100% 1017.7 hPa - - - -
1787955980 17.78° C 98% 1017.5 hPa - - - -
1787955080 17.22° C 99% 1017.4 hPa - - - -
1787954180 17.78° C 96% 1017.1 hPa - - - -
1787953280 17.78° C 98% 1017.6 hPa - - - -
1787952380 17.22° C 100% 1017.2 hPa - - - -
1787951480 17.78° C 100% 1016.8 hPa - - - -
1787950580 18.33° C 96% 1016.4 hPa - - - -
1787949680 18.89° C 91% 1016.9 hPa - - - -
1787948780 18.33° C 100% 1017 hPa - - - -
1787947880 18.33° C 100% 1017.7 hPa - - - -
1787946979 18.33° C 100% 1016.6 hPa - - - -
1787946086 18.89° C 100% 1016.6 hPa - - - -
1787945179 18.89° C 100% 1016.1 hPa - - - -
1787944279 18.89° C 100% 1016.2 hPa - - - -
1787943379 18.33° C 100% 1016.2 hPa - - - -
1787942479 18.89° C 100% 1016.1 hPa - - - -

* Rain since midnight (hover to see other rain measurements)
** Current wind speed in m/s (hover to see current wind gust speed)